User: anonymous   Login
Location: Canazei
(46.4667°N, 11.7667°E)
Time: 18:55:54
(UTC+00:00)
Language:

Cosmos 1538 Rocket - Orbit

View from above orbital plane
View from above orbital plane
View from above satellite
View from above satellite

Ground track
Ground track

The orbit data is extracted from the following two-line orbital elements,

1 14760U 84019B   21172.57607190  .00000001  00000-0  92605-5 0  9996
2 14760  74.0440 313.4781 0027703 175.1997 184.9427 14.35910362953909
Epoch (UTC): 21 June 2021 13:49:32
Eccentricity: 0.0027703
inclination: 74.0440°
perigee height: 752 km
apogee height: 792 km
right ascension of ascending node: 313.4781°
argument of perigee: 175.1997°
revolutions per day: 14.35910362
mean anomaly at epoch: 184.9427°
orbit number at epoch: 95390

The dashed part of the orbit path shows where the satellite is in the earth's shadow,  

DLR